Regional Weather Roundup
Issued by NWS

Home | Current Version | Previous Version | Text Only | Print | Product List | Glossary On
Versions: 1 2 3 4 5 6 7 8 9 10 11 12 13 14 15 16 17 18 19 20 21 22 23 24 25 26 27 28 29 30 31 32 33 34 35 36 37 38 39 40 41 42 43 44 45 46 47 48 49 50
000
ASUS43 KTOP 191608
RWRKS

WEATHER ROUNDUP FOR KANSAS
NATIONAL WEATHER SERVICE GOODLAND KS
1100 AM CDT SAT AUG 19 2017

NOTE:  "FAIR" INDICATES FEW OR NO CLOUDS BELOW 12,000 FEET WITH NO
SIGNIFICANT WEATHER AND/OR OBSTRUCTIONS TO VISIBILITY.

KSZ001>006-013>018-027>032-041>047-191700-
NORTHWEST KANSAS

CITY           SKY/WX    TMP DP  RH WIND       PRES   REMARKS
GOODLAND       SUNNY     81  67  62 S15       30.02S
HAYS           SUNNY     84  70  62 SE12      29.98F
HILL CITY      SUNNY     86  67  52 S9        29.99F
RUSSELL        SUNNY     84  67  56 S8        29.98S
$$

KSZ061>065-074>080-084>089-191700-
SOUTHWEST KANSAS

CITY           SKY/WX    TMP DP  RH WIND       PRES   REMARKS
DODGE CITY     SUNNY     90  67  46 S8        30.03S
ELKHART          N/A     82  71  69 SE10        N/A
GARDEN CITY    SUNNY     86  68  54 S10       30.03S
GREAT BEND     SUNNY     84  72  67 CALM      30.00R
LIBERAL        SUNNY     81  70  69 SW8       30.06S
PRATT          SUNNY     90  65  44 W3        30.00S
$$

KSZ066>073-081>083-090>101-191700-
SOUTHEAST KANSAS

CITY           SKY/WX    TMP DP  RH WIND       PRES   REMARKS
CHANUTE        SUNNY     86  75  69 SW7       29.98S HX  95
COFFEYVILLE    SUNNY     86  77  74 S5        29.97F HX  97
HUTCHINSON     SUNNY     87  71  58 S6        29.97S
MEDICINE LODGE   N/A     86  70  58 CALM      29.97S
NEWTON         SUNNY     87  73  62 SW6       29.99R
PARSONS        SUNNY     86  76  71 S6        29.99S HX  96
WICHITA INTL   MOSUNNY   89  73  59 VRB7      29.97R HX  97
WICHITA JABRA  SUNNY     88  74  63 SW7       29.97S HX  96
WICHITA MCCONL SUNNY     87  72  59 SW6       29.98R
WINFIELD       SUNNY     86  76  71 S6        29.99S HX  96
$$

KSZ007>012-019>026-033>040-048>060-102>105-191700-
NORTHEAST KANSAS

CITY           SKY/WX    TMP DP  RH WIND       PRES   REMARKS
CONCORDIA      SUNNY     81  70  69 SE10      29.98S
EMPORIA        SUNNY     82  70  66 NE5       29.98R
LAWRENCE       SUNNY     84  70  62 NE6       29.98R
MANHATTAN      SUNNY     82  71  69 E5        29.98S
MARYSVILLE     SUNNY     82  66  57 S3        29.98S
OLATHE IND     SUNNY     84  71  65 NE5       29.99S
OLATHE EXE     SUNNY     84  68  58 VRB3      29.99R
SALINA         SUNNY     84  68  58 NE7       29.98S
TOPEKA BILLARD SUNNY     84  70  62 NE3       29.98S
TOPEKA FORBES  SUNNY     85  72  65 NE3       29.99R
$$



USA.gov is the U.S. government's official web portal to all federal, state and local government web resources and services.